SCP
3 3 3 3 4 4 4 4 3 3 3 3 3 3 3 3 3 2 2 2 2 1 1 1 2 2 2 2 1 1 1 1 1 1 1 1 1 1 1 1 1 1 1
3 3 4 4 4 4 4 4 3 3 3 2 2 3 3 2 2 2 2 2 2 1 1 1 1 2 2 2 1 1 1 1 1 1 1 1 1 1 1 1 1 1 1
3 4 5 5 5 4 5 5 4 3 3 2 2 2 2 2 2 2 2 2 2 2 1 1 1 2 2 2 1 1 1 1 1 1 1 1 1 1 1 1 1 1 1
4 5 7 7 6 5 5 5 4 4 3 2 2 2 2 2 2 2 2 2 2 2 1 1 1 1 1 1 1 1 1 1 1 1 1 0 0 1 1 1 1 1 1
4 5 7 8 8 6 6 5 5 4 3 2 2 2 2 2 2 2 2 2 2 2 1 1 1 1 1 1 1 1 1 1 1 1 1 1 1 1 1 1 1 1 1
5 5 7 9 8 7 6 5 5 4 3 2 2 2 2 2 2 2 2 2 2 2 1 1 1 1 1 1 1 1 1 1 1 1 1 1 1 1 2 2 1 1 1
6 6 7 8 8 7 6 5 5 4 3 3 2 2 2 2 2 2 2 2 2 2 2 1 1 1 1 1 1 1 1 1 1 1 0 1 1 1 2 2 2 1 1
6 6 6 7 7 7 6 5 5 4 4 3 3 2 2 2 2 2 2 2 2 2 2 1 1 1 1 1 1 1 1 1 1 1 1 1 1 1 2 2 2 2 1
5 6 7 7 6 6 6 6 5 5 4 4 3 2 2 2 2 2 2 2 2 2 1 1 1 2 2 1 1 1 1 1 1 1 1 1 1 1 2 2 2 2 2
5 6 6 6 5 5 6 6 5 5 4 4 4 3 2 2 2 2 2 2 2 1 1 1 2 2 2 1 1 1 1 1 1 1 1 1 1 1 2 2 2 2 2
5 6 6 5 4 4 4 5 5 5 4 4 4 3 3 2 2 2 2 2 2 1 1 2 2 2 2 1 1 1 1 1 1 1 1 1 1 1 2 2 2 2 2
4 5 5 5 4 4 3 4 4 4 4 4 3 3 2 2 2 2 2 2 2 1 1 2 2 2 2 2 1 1 1 1 1 1 1 1 1 1 2 3 3 2 2
3 4 5 5 5 4 3 4 4 4 4 4 3 3 2 2 3 3 3 2 2 1 1 2 3 3 2 2 1 1 1 1 1 1 1 1 1 1 2 2 2 2 2
3 4 7 7 6 4 4 4 4 5 5 4 3 3 3 2 3 3 3 2 2 2 2 2 3 3 2 2 1 1 1 1 1 1 1 1 1 1 2 2 2 2 2
3 5 8 9 7 5 4 4 4 5 5 4 3 3 2 2 3 3 2 2 2 2 2 3 3 3 2 2 1 1 1 1 1 1 1 1 1 2 2 2 2 2 2
4 5 7 9 8 6 4 4 4 5 5 4 3 3 2 2 2 2 2 1 1 1 1 2 2 3 2 2 2 1 1 1 1 1 1 1 1 2 2 3 3 3 3
4 4 6 8 9 6 4 4 4 4 4 3 2 2 2 2 2 2 2 1 1 1 1 1 1 2 2 2 2 1 1 1 1 1 1 1 1 1 3 4 4 4 3
5 5 6 8 8 6 4 4 4 4 3 2 2 2 2 2 2 2 2 2 2 1 1 1 1 1 1 1 1 1 1 1 1 1 1 1 1 1 2 3 4 3 2
6 6 6 7 7 5 4 3 3 3 3 3 3 2 2 2 2 2 2 2 3 2 2 2 2 1 1 1 1 1 1 1 1 1 1 1 1 1 1 2 3 3 2
7 7 7 7 6 4 4 3 3 3 4 4 3 2 2 3 3 3 3 3 3 3 2 2 2 1 1 1 1 1 1 1 1 1 1 1 1 1 1 1 2 2 2
8 8 7 6 5 4 3 3 3 3 3 3 3 2 2 3 3 3 3 3 3 3 3 2 2 1 1 1 1 1 1 1 1 1 1 1 1 1 1 1 1 2 2
10 9 8 6 4 4 4 4 3 3 3 3 3 2 2 2 2 3 3 3 4 4 3 2 1 1 1 1 1 1 1 0 0 1 1 1 1 1 1 1 1 1 1
11 10 8 5 4 4 4 4 4 4 3 3 3 2 2 2 2 2 2 3 4 4 3 2 1 1 1 1 1 1 1 1 0 0 0 0 1 1 1 1 1 1 1
10 9 6 5 4 4 4 4 4 4 3 3 2 2 1 1 1 2 2 3 4 4 3 2 2 1 1 1 1 1 1 1 0 0 0 0 0 0 1 1 1 1 1
7 6 5 4 3 3 4 4 4 4 3 2 2 1 1 1 1 1 2 3 3 3 3 3 2 2 2 1 2 2 2 1 1 0 0 0 0 0 0 0 1 1 1
5 4 4 3 3 3 3 4 4 4 3 2 1 1 1 1 1 2 2 3 3 3 3 3 3 2 2 2 2 2 2 2 1 1 0 0 0 0 0 0 0 0 0
Wind_Speed
7 9 14 14 15 15 14 14 13 13 13 13 13 14 14 15 14 15 15 15 14 13 13 12 11 10 9 9 9 9 9 8 8 9 9 10 10 10 9 9 9 7 11
12 11 15 15 15 15 14 14 14 13 13 13 13 13 13 14 14 14 14 14 13 12 12 11 10 9 8 8 8 8 7 7 7 7 7 7 8 9 9 10 10 7 11
14 12 14 15 16 15 14 14 14 13 12 12 12 12 12 13 13 13 12 12 12 11 11 10 10 9 8 7 6 6 6 6 5 5 4 3 4 8 9 10 11 10 10
14 11 12 16 16 15 14 14 13 13 12 12 11 11 12 12 12 11 11 11 11 10 10 9 9 8 7 6 5 5 4 4 4 3 2 2 3 7 9 10 11 11 11
11 10 12 17 16 15 14 14 13 12 12 11 11 11 11 11 11 10 11 11 10 10 9 9 8 7 7 6 5 4 3 3 3 2 1 2 3 7 9 11 12 12 11
10 9 12 17 16 15 15 14 12 12 11 11 10 11 10 11 10 10 10 10 9 9 8 8 8 7 7 6 5 4 4 3 2 1 1 2 3 7 10 11 13 12 11
9 7 9 14 15 15 14 13 13 12 11 10 10 10 10 10 10 9 9 9 9 9 8 8 7 7 6 6 5 4 4 4 2 1 1 2 3 8 10 12 12 12 11
11 8 8 11 12 12 12 12 11 11 10 9 9 9 9 9 10 10 9 9 9 9 8 8 7 7 6 6 6 5 5 4 2 1 1 2 4 7 9 10 11 11 11
9 8 6 7 8 10 10 10 10 10 10 9 8 8 9 9 10 10 10 9 9 8 8 7 7 7 6 6 6 6 6 6 2 1 2 2 5 8 9 11 11 10 10
7 6 5 5 5 5 6 9 10 10 9 9 9 9 9 9 9 10 9 9 9 9 9 8 8 7 7 7 7 7 6 5 2 2 2 4 7 9 10 11 11 11 10
6 4 4 4 4 3 4 6 8 9 8 8 7 9 8 4 4 5 7 9 9 8 8 8 8 7 6 6 7 8 5 2 2 2 2 6 9 10 10 10 10 10 10
7 5 3 4 4 3 4 3 2 3 3 3 3 4 3 3 3 5 7 9 9 9 8 8 8 7 5 2 4 6 2 3 3 3 4 8 9 10 10 10 10 10 10
7 6 4 5 5 4 2 3 2 1 2 2 3 3 3 3 2 3 2 4 5 6 4 5 4 3 3 2 2 2 2 2 2 3 4 8 10 10 11 11 11 11 11
7 6 5 5 5 5 4 3 3 2 2 2 3 3 3 2 2 2 2 2 2 2 3 3 2 3 3 3 3 3 3 3 3 3 4 9 10 11 11 11 11 10 10
5 4 5 4 4 3 3 3 3 3 4 3 3 3 4 3 3 3 2 2 2 2 3 3 3 3 3 3 3 3 4 4 4 4 3 9 10 10 10 10 10 10 10
5 4 4 4 4 4 3 3 3 3 3 3 3 3 4 3 3 3 2 2 2 2 2 2 3 3 3 2 3 3 3 3 3 3 3 5 9 10 10 10 10 11 11
4 4 3 4 4 4 3 2 2 2 3 3 3 3 4 3 3 3 2 2 3 2 3 2 2 1 2 2 3 3 2 3 3 3 4 3 4 8 10 10 10 11 11
4 4 3 3 3 3 3 3 2 2 2 3 3 3 3 3 3 3 3 2 2 2 2 2 2 1 2 2 2 2 2 2 3 3 3 4 3 4 6 9 10 11 11
4 5 3 3 4 3 3 2 2 2 2 2 2 2 2 3 3 3 2 2 2 2 2 2 2 2 1 1 1 2 2 2 3 3 3 4 4 4 4 7 10 11 11
3 4 3 3 3 2 2 1 1 1 1 2 2 2 2 2 3 2 1 1 1 1 1 1 2 1 2 2 2 2 2 2 2 3 4 3 3 5 5 5 5 7 10
2 2 2 2 2 2 1 1 1 2 2 1 2 2 2 2 2 2 1 1 1 2 2 2 2 1 1 1 1 1 2 2 2 3 3 3 4 4 4 4 4 3 4
2 2 2 3 2 2 1 1 2 2 2 2 1 1 2 2 3 3 3 3 2 2 2 2 2 1 1 1 2 1 2 3 2 2 2 3 4 3 4 5 4 5 4
1 2 2 3 3 2 2 1 1 1 1 0 0 1 2 2 2 2 3 3 2 2 2 2 2 2 1 1 2 3 2 3 2 2 2 3 3 3 3 3 5 5 6
2 2 1 2 2 2 1 1 2 2 1 2 1 1 1 2 2 3 3 3 2 2 2 2 2 2 2 1 1 1 3 3 2 2 3 2 3 3 3 3 4 4 4
1 1 1 1 1 1 1 2 2 1 1 1 1 1 1 1 2 2 3 3 3 3 3 3 2 2 2 2 2 1 1 1 1 2 2 3 3 3 3 3 3 3 4
1 1 1 1 0 1 1 1 1 2 1 1 1 1 1 1 1 2 2 2 3 2 3 3 3 3 2 3 2 2 2 1 2 2 3 3 3 3 3 3 3 3 3
Wind_Direction
152 155 150 142 135 132 129 126 123 119 116 114 114 113 114 115 119 123 127 130 133 135 135 134 133 131 127 126 126 128 130 132 135 138 143 146 148 150 151 150 151 149 148
150 153 151 145 139 136 134 131 128 124 123 123 122 121 122 124 125 126 129 132 135 137 137 138 137 135 131 130 132 133 134 135 138 146 151 154 158 160 159 157 154 154 150
146 152 153 147 142 139 137 134 132 134 132 130 130 131 131 131 131 132 133 135 138 141 143 144 144 143 140 140 140 138 139 142 146 151 154 150 168 171 168 164 161 159 155
148 151 152 148 144 142 139 138 140 141 139 139 140 140 141 139 138 139 141 143 145 147 150 152 153 152 151 153 154 152 154 160 164 166 154 178 191 180 175 171 167 165 163
144 148 152 149 146 144 144 145 145 145 145 147 149 148 149 148 147 150 149 150 151 153 157 159 161 163 164 169 171 171 178 189 195 190 188 208 212 192 185 178 174 172 170
142 147 153 150 150 150 150 151 150 150 151 152 153 155 156 156 156 158 158 157 158 160 164 168 172 175 178 183 186 189 201 217 214 183 210 206 199 188 181 177 178 178 175
138 145 151 152 153 155 156 156 155 154 155 156 157 159 160 162 163 165 169 169 170 172 174 178 181 187 188 192 196 206 216 224 208 186 207 201 199 188 180 180 179 180 180
138 137 141 151 154 155 157 159 159 157 157 158 161 163 164 168 172 175 179 181 182 183 181 184 187 194 200 207 216 221 226 231 222 215 179 190 198 189 182 180 177 179 183
125 130 136 151 156 159 161 163 164 163 160 161 166 170 172 176 181 184 188 191 189 188 189 192 197 203 210 220 231 236 237 238 216 198 210 196 188 183 180 180 177 179 182
116 123 129 135 141 155 165 169 168 169 170 170 174 177 181 185 188 194 194 193 192 195 196 199 205 211 216 227 237 244 245 241 218 203 199 202 196 191 187 184 181 184 186
115 122 134 134 136 149 164 176 174 175 177 178 181 187 188 191 192 197 198 195 195 199 206 210 215 223 226 236 243 247 248 215 210 204 202 208 203 195 190 187 185 186 186
134 140 147 151 152 156 173 160 173 181 178 182 188 195 188 182 191 194 201 202 203 207 214 220 224 227 226 231 247 248 230 215 208 211 211 211 206 198 193 191 189 190 192
153 151 167 173 170 171 173 160 172 177 176 189 197 193 185 183 190 205 201 209 211 214 217 225 226 221 217 217 228 229 219 215 209 214 215 207 203 197 195 193 195 197 198
153 162 173 176 172 178 174 180 180 180 187 194 198 188 181 188 192 190 193 196 200 206 205 215 216 222 225 225 221 223 222 212 206 209 215 204 196 193 194 196 199 203 204
150 161 165 167 166 170 172 187 184 191 194 195 191 190 184 183 191 187 191 195 203 200 199 206 215 222 224 233 230 217 215 213 209 207 209 201 196 198 200 200 202 207 209
162 165 155 153 159 157 172 185 188 189 189 189 192 192 183 182 183 188 194 196 204 206 207 201 206 216 220 218 231 225 213 209 208 210 204 207 207 204 204 209 211 214 214
158 155 158 155 145 149 165 186 181 184 181 178 193 191 183 184 184 180 186 203 204 196 189 186 206 209 225 223 226 227 216 211 208 211 206 210 216 215 211 215 220 221 221
151 152 166 157 152 158 158 173 179 177 179 184 191 188 188 188 186 180 185 203 196 183 180 183 193 199 235 238 225 235 232 229 223 224 208 208 214 219 220 220 221 223 224
152 150 159 165 172 182 175 173 183 183 180 186 185 180 187 186 176 179 197 201 182 174 184 200 191 184 216 246 230 231 234 237 231 236 220 216 213 215 217 222 221 223 223
124 125 143 143 159 173 160 147 161 176 192 181 185 187 188 189 177 167 178 193 173 156 193 211 205 193 193 204 240 257 252 242 230 233 230 224 215 216 216 221 218 223 224
97 112 128 129 135 138 147 165 178 210 214 202 197 188 186 181 170 166 183 178 171 184 209 212 201 205 231 162 91 324 310 271 249 240 240 228 220 216 213 213 209 212 225
168 164 150 151 147 151 178 192 189 191 211 209 205 193 189 183 182 176 192 196 185 181 193 211 187 176 243 155 142 108 336 327 303 259 240 224 228 220 214 212 206 209 213
191 189 183 184 171 166 166 133 98 90 86 100 169 205 213 196 193 191 191 192 186 180 196 209 193 171 199 244 160 157 168 230 278 292 258 243 238 234 235 226 216 218 219
236 221 202 191 164 155 146 140 160 161 186 210 208 212 228 214 204 192 193 188 183 184 192 206 188 172 169 203 248 205 193 183 183 279 304 285 264 249 244 241 229 221 219
274 238 194 151 134 146 166 185 180 181 199 181 139 151 250 248 228 219 202 187 193 195 195 196 188 179 180 185 197 208 221 213 186 186 264 293 300 272 251 242 233 225 219
329 282 113 93 147 176 185 184 172 163 163 148 163 201 251 256 249 236 211 198 203 203 201 199 192 186 188 188 195 188 179 180 210 198 228 258 272 274 262 251 242 236 227